This is the latest recevied weather packets stored in our database for station/object JA3VQW-13. If no packets are shown the sender has not sent any weather packets the latest 10 day(s).
| Time | Temp. | Humidity | Pressure | Rain* | Wind** | Luminosity | Snow |
|---|---|---|---|---|---|---|---|
| 1777953978 | 25° C | 15% | 1010 hPa | 0 mm | - | - | - |
| 1777952178 | 23.33° C | 16% | 1010 hPa | 0 mm | - | - | - |
| 1777950377 | 22.78° C | 16% | 1010 hPa | 0 mm | - | - | - |
| 1777949791 | 22.22° C | 16% | 1010 hPa | 0 mm | - | - | - |
| 1777948891 | 21.67° C | 17% | 1011 hPa | 0 mm | - | - | - |
| 1777948578 | 21.67° C | 17% | 1011 hPa | 0 mm | - | - | - |
| 1777947991 | 20.56° C | 20% | 1011 hPa | 0 mm | - | - | - |
| 1777947091 | 20° C | 20% | 1011 hPa | 0 mm | - | - | - |
| 1777946778 | 20° C | 20% | 1011 hPa | 0 mm | - | - | - |
| 1777946190 | 19.44° C | 20% | 1011 hPa | 0 mm | - | - | - |
| 1777944976 | 18.89° C | 23% | 1012 hPa | 0 mm | - | - | - |
| 1777944392 | 18.33° C | 23% | 1012 hPa | 0 mm | - | - | - |
| 1777943491 | 17.78° C | 24% | 1012 hPa | 0 mm | - | - | - |
| 1777943178 | 17.78° C | 24% | 1012 hPa | 0 mm | - | - | - |
| 1777942592 | 17.78° C | 25% | 1012 hPa | 0 mm | - | - | - |
| 1777941692 | 16.67° C | 27% | 1012 hPa | 0 mm | - | - | - |
| 1777941377 | 16.67° C | 28% | 1012 hPa | 0 mm | - | - | - |
| 1777940792 | 16.67° C | 29% | 1012 hPa | 0 mm | - | - | - |
| 1777939891 | 16.11° C | 28% | 1012 hPa | 0 mm | - | - | - |
| 1777939576 | 16.11° C | 28% | 1012 hPa | 0 mm | - | - | - |
| 1777938990 | 15.56° C | 32% | 1012 hPa | 0 mm | - | - | - |
| 1777938090 | 15° C | 34% | 1012 hPa | 0 mm | - | - | - |
| 1777937777 | 15° C | 35% | 1012 hPa | 0 mm | - | - | - |
| 1777937191 | 15° C | 36% | 1012 hPa | 0 mm | - | - | - |
| 1777936292 | 14.44° C | 39% | 1012 hPa | 0 mm | - | - | - |
* Rain latest hour (hover to see other rain measurements)
** Current wind speed in m/s (hover to see current wind gust speed)